Simultaneous Nadir Overpasses (SNOs) Predictions

Prediction of SNOs between GOES-17 and NOAA-20 Satellite Orbit:

Table of predicted SNOs for the next 14.0 days since TLE Epoch: 1/18/2025
Index Date Time (GOES-17) GOES-17 Lat,Lon NOAA-20 Lat,Lon Distance(km) Time Diff (sec)
1 01/18/2025 08:31:28 0.02,-104.71 0.45,-106.61 216.54 80
2 01/19/2025 08:10:04 0.02,-104.71 -0.54,-102.08 299.68 80
3 01/20/2025 20:32:01 -0.03,-104.66 -0.62,-107.39 310.52 80
4 01/21/2025 20:15:57 -0.03,-104.66 0.37,-102.85 206.10 80
5 01/23/2025 08:37:46 0.03,-104.72 0.77,-108.13 388.05 80
6 01/24/2025 08:16:22 0.03,-104.72 -0.23,-103.60 128.04 80
7 01/25/2025 20:38:18 -0.04,-104.66 -0.97,-108.90 483.10 80
8 01/26/2025 20:22:13 -0.04,-104.66 0.03,-104.37 33.21 80
9 01/29/2025 08:25:17 0.05,-104.72 0.16,-105.11 44.89 80
10 01/30/2025 08:03:54 0.05,-104.72 -0.90,-100.59 471.15 80
11 01/31/2025 20:25:49 -0.05,-104.65 -0.33,-105.88 140.06 80
